Gastonia, NC

1:29 PM EST on January 23, 2020 (GMT -0500)
Gastonia Municipal

Weather History for KAKH - November, 2019

Change the Weather History Date:

Monday, November 4, 2019

  Actual Average (KCLT) Record (KCLT)
Temperature  
Mean Temperature 48 °F -  
Max Temperature 60 °F 64 °F 83 °F (1961)
Min Temperature 36 °F 45 °F 22 °F (1966)
Degree Days  
Heating Degree Days 17    
Moisture  
Dew Point 37 °F    
Average Humidity 66    
Maximum Humidity 86    
Minimum Humidity 39    
Precipitation  
Precipitation 0.00 in - - ()
Sea Level Pressure  
Sea Level Pressure 30.27 in    
Wind  
Wind Speed 1 mph ()    
Max Wind Speed 6 mph    
Max Gust Speed -    
Visibility 9.8 miles    
Events      
Averages and records for this station are not official NWS values.
T = Trace of Precipitation, MM = Missing Value Source: Averaged Metar Reports

Daily Weather History Graph

Daily Weather History Graph

Search for Another Location

Airport or City:

Astronomy

Nov. 04, 2019 Rise Set
Actual Time 6:48 AM EST 5:27 PM EST
Civil Twilight 6:22 AM EST 5:53 PM EST
Nautical Twilight 5:52 AM EST 6:23 PM EST
Astronomical Twilight 5:22 AM EST 6:53 PM EST
Moon 1:43 PM EST (11/4) No Moon Set
Length of Visible Light 11h 31m
Length of Day
10h 38m
First Quarter, 53% of the Moon is Illuminated
Nov 4
First Quarter
Nov 12
Full
Nov 19
Last Quarter
Nov 26
New
Dec 4
First Quarter

Hourly Weather History & Observations

Time (EST) Temp. Windchill Dew Point Humidity Pressure Visibility Wind Dir Wind Speed Gust Speed Precip Events Conditions
12:54 AM 39.0 °F - 34.0 °F 82% 30.25 in 10.0 mi Calm Calm - N/A   Clear
1:54 AM 37.9 °F - 33.1 °F 83% 30.26 in 9.0 mi Calm Calm - N/A   Clear
2:54 AM 37.9 °F - 33.1 °F 83% 30.27 in 9.0 mi Calm Calm - N/A   Clear
3:54 AM 37.0 °F - 33.1 °F 86% 30.27 in 10.0 mi Calm Calm - N/A   Clear
4:54 AM 37.9 °F 35.5 °F 34.0 °F 86% 30.27 in 10.0 mi North 3.5 mph - N/A   Clear
5:54 AM 37.0 °F - 32.0 °F 82% 30.29 in 10.0 mi Calm Calm - N/A   Clear
6:54 AM 36.0 °F - 32.0 °F 86% 30.30 in 8.0 mi Calm Calm - N/A   Clear
7:54 AM 43.0 °F 41.3 °F 36.0 °F 76% 30.32 in 10.0 mi NNE 3.5 mph - N/A   Clear
8:54 AM 48.9 °F - 36.0 °F 61% 30.33 in 10.0 mi NNE 5.8 mph - N/A   Clear
9:54 AM 55.0 °F - 36.0 °F 49% 30.33 in 10.0 mi Calm Calm - N/A   Clear
10:54 AM 57.9 °F - 34.0 °F 41% 30.32 in 10.0 mi Calm Calm - N/A   Clear
11:54 AM 59.0 °F - 35.1 °F 41% 30.30 in 10.0 mi Variable 4.6 mph - N/A   Clear
12:54 PM 59.0 °F - 34.0 °F 39% 30.28 in 10.0 mi Variable 4.6 mph - N/A   Clear
1:54 PM 60.1 °F - 36.0 °F 41% 30.26 in 10.0 mi Variable 3.5 mph - N/A   Clear
2:54 PM 60.1 °F - 37.0 °F 42% 30.25 in 10.0 mi Calm Calm - N/A   Clear
3:54 PM 60.1 °F - 37.0 °F 42% 30.25 in 10.0 mi Calm Calm - N/A   Clear
4:54 PM 57.9 °F - 42.1 °F 56% 30.24 in 10.0 mi Calm Calm - N/A   Clear
5:54 PM 55.0 °F - 44.1 °F 67% 30.25 in 10.0 mi Calm Calm - N/A   Clear
6:54 PM 53.1 °F - 45.0 °F 74% 30.25 in 10.0 mi Calm Calm - N/A   Clear
7:54 PM 52.0 °F - 46.0 °F 80% 30.25 in 10.0 mi Calm Calm - N/A   Mostly Cloudy
8:54 PM 52.0 °F - 45.0 °F 77% 30.25 in 10.0 mi Calm Calm - N/A   Clear
9:54 PM 53.1 °F - 43.0 °F 69% 30.25 in 10.0 mi Calm Calm - N/A   Partly Cloudy
10:54 PM 51.1 °F - 44.1 °F 77% 30.25 in 10.0 mi Calm Calm - N/A   Overcast